KI5IZM-13 Weather Reports


time (UTC)temp
F
wind
direction
speed
knots
gust
knots
rain 1hr
in
rain 24hr
in
rain mn
in
humidity
%
barometer
mb
20260505184526 79 249 2.6 11.3 0.00 0.00 0.00 77 1007.7
20260505183039 79 276 4.3 15.6 0.00 0.00 0.00 76 1007.9
20260505181525 79 87 2.6 11.3 0.00 0.00 0.00 77 1007.8
20260505180035 79 113 3.5 13.9 0.00 0.00 0.00 76 1008.0
20260505174530 78 284 2.6 9.6 0.00 0.00 0.00 77 1008.0
20260505173034 78 184 3.5 11.3 0.00 0.00 0.00 78 1008.0
20260505171533 77 246 3.5 13.9 0.00 0.00 0.00 79 1008.1
20260505170026 76 263 2.6 14.8 0.00 0.00 0.00 80 1008.4
20260505164535 76 240 3.5 11.3 0.00 0.00 0.00 80 1008.3
20260505163024 76 228 1.7 10.4 0.00 0.00 0.00 81 1008.5
20260505161506 74 242 5.2 14.8 0.00 0.00 0.00 83 1008.4
20260505153027 73 146 0.9 13.0 0.00 0.00 0.00 83 1008.4
20260505151523 73 141 3.5 13.0 0.00 0.00 0.00 83 1008.4
20260505124513 70 257 0.9 13.0 0.00 0.00 0.00 87 1008.2
20260505123011 70 234 1.7 8.7 0.00 0.00 0.00 86 1008.1
20260505121521 70 181 1.7 9.6 0.00 0.00 0.00 86 1008.0
20260505120033 70 123 0.9 8.7 0.00 0.00 0.00 87 1007.7
20260505114507 70 266 3.5 11.3 0.00 0.00 0.00 86 1007.3
20260505113011 70 194 4.3 9.6 0.00 0.00 0.00 86 1007.3
20260505111519 70 259 2.6 13.9 0.00 0.00 0.00 86 1007.6
20260505101511 69 79 2.6 8.7 0.00 0.00 0.00 86 1007.3
20260505100018 68 218 2.6 11.3 0.00 0.00 0.00 86 1007.5
20260505094529 68 108 2.6 14.8 0.00 0.00 0.00 86 1007.4
20260505093004 68 298 0.0 9.6 0.00 0.00 0.00 86 1007.4
20260505091510 68 142 6.1 11.3 0.00 0.00 0.00 86 1007.4
20260505090026 68 139 1.7 7.0 0.00 0.00 0.00 87 1007.6
20260505084523 68 179 0.9 8.7 0.00 0.00 0.00 87 1008.0
20260505083026 67 186 1.7 10.4 0.00 0.00 0.00 87 1008.0
20260505081506 67 70 1.7 7.0 0.00 0.00 0.00 87 1008.1
20260505080010 67 146 2.6 7.0 0.00 0.00 0.00 86 1008.2
20260505074516 67 269 0.0 7.8 0.00 0.00 0.00 86 1008.4
20260505073021 67 107 1.7 9.6 0.00 0.00 0.00 86 1008.6
20260505071529 68 113 0.9 5.2 0.00 0.00 0.00 85 1008.6
20260505070028 68 166 0.9 9.6 0.00 0.00 0.00 85 1008.8
20260505064512 68 121 0.9 7.8 0.00 0.00 0.00 84 1008.7
20260505063020 68 179 0.9 6.1 0.00 0.00 0.00 83 1009.0
20260505061521 68 263 0.9 11.3 0.00 0.00 0.00 83 1009.2
20260505060027 69 121 0.9 7.0 0.00 0.00 0.00 82 1009.2
20260505054526 69 134 2.6 8.7 0.00 0.00 0.00 81 1009.0
20260505053018 69 132 0.9 11.3 0.00 0.00 0.00 81 1009.5
20260505051524 70 130 1.7 7.0 0.00 0.00 0.00 80 1009.3
20260505041507 71 271 1.7 7.8 0.00 0.00 0.00 76 1009.4
20260505040009 71 111 2.6 9.6 0.00 0.00 0.00 75 1009.4
20260505034510 72 155 0.9 7.0 0.00 0.00 0.00 74 1009.7
20260505033011 72 257 2.6 7.0 0.00 0.00 0.00 73 1009.4
20260505031511 72 211 0.0 12.2 0.00 0.00 0.00 72 1009.3
20260505030010 72 167 1.7 10.4 0.00 0.00 0.00 71 1009.2
20260505024513 72 104 0.9 7.0 0.00 0.00 0.00 70 1009.3
20260505023009 72 134 0.9 6.1 0.00 0.00 0.00 69 1009.2
20260505021512 73 114 0.0 4.3 0.00 0.00 0.00 68 1009.4
20260505020018 73 202 0.9 5.2 0.00 0.00 0.00 67 1009.2
20260505014513 74 152 0.0 3.5 0.00 0.00 0.00 66 1009.2
20260505013018 74 240 0.0 6.1 0.00 0.00 0.00 64 1009.1
20260505011511 75 132 0.0 4.3 0.00 0.00 0.00 63 1008.9
20260505010014 76 216 0.0 8.7 0.00 0.00 0.00 62 1009.1
20260505004531 76 148 0.0 5.2 0.00 0.00 0.00 60 1008.9
20260505003016 77 178 0.9 6.1 0.00 0.00 0.00 59 1008.9
20260505001518 77 135 0.9 7.0 0.00 0.00 0.00 57 1008.9
20260505000023 78 22 2.6 8.7 0.00 0.00 0.00 56 1009.2
20260504234516 78 283 0.9 9.6 0.00 0.00 0.00 55 1009.5
20260504233017 79 102 3.5 10.4 0.00 0.00 0.00 54 1009.7
20260504231519 79 19 1.7 13.0 0.00 0.00 0.00 54 1009.6
20260504230024 79 203 1.7 13.9 0.00 0.00 0.00 54 1009.7
20260504224515 79 133 2.6 10.4 0.00 0.00 0.00 53 1009.9
20260504223018 79 157 0.9 12.2 0.00 0.00 0.00 52 1010.0
20260504221523 80 138 4.3 10.4 0.00 0.00 0.00 51 1010.1
20260504220024 81 160 3.5 12.2 0.00 0.00 0.00 49 1010.2
20260504214524 80 262 2.6 11.3 0.00 0.00 0.00 49 1010.7
20260504213040 80 189 3.5 10.4 0.00 0.00 0.00 49 1010.9
20260504211521 80 120 5.2 12.2 0.00 0.00 0.00 47 1011.2
20260504210027 79 138 3.5 12.2 0.00 0.00 0.00 48 1011.6
20260504204527 80 219 1.7 9.6 0.00 0.00 0.00 47 1012.0
20260504203024 80 140 4.3 13.0 0.00 0.00 0.00 47 1012.2
20260504201532 80 132 5.2 11.3 0.00 0.00 0.00 47 1012.3
20260504200022 79 144 4.3 11.3 0.00 0.00 0.00 47 1012.7
20260504194526 79 144 5.2 12.2 0.00 0.00 0.00 46 1012.8
20260504193011 79 158 3.5 13.0 0.00 0.00 0.00 48 1012.9
20260504191519 78 121 3.5 14.8 0.00 0.00 0.00 48 1013.2
20260504190003 78 130 3.5 9.6 0.00 0.00 0.00 49 1013.5